Вернуться в каталог

STARLINK-1356

АктивенСвязьVLEO
NORAD 45564·PAYLOAD·🇺🇸 United States

Запущен Apr 22, 2020 с Cape Canaveral Space Force Station

Loading…

Ближайшие Пролёты (ближайшие 24 часа)

TLE

СвежийSource: CelesTrak SupGP

Эпоха: Sep 14, 2026, 21:59 UTC

1 45564C 20025AK  26257.91645833  .00089539  00000+0  59978-3 0  2575
2 45564  53.0381 230.0363 0003227  51.6848 177.1382 15.74528187    17

Отслеживайте STARLINK-1356 в реальном времени с AllMySat

Download on the App Store